�������l�o���
Date,Time,MP-1(��Sv/h),MP-2(��Sv/h),MP-3(��Sv/h),MP-4(��Sv/h),MP-5(��Sv/h),MP-6(��Sv/h),MP-7(��Sv/h),MP-8(��Sv/h),����,����(m/s),���J
2020/06/10,00:00,0.717,1.038,0.648,1.256,0.908,0.405,0.701,0.654,�k�k��,1.7,��
2020/06/10,00:10,0.718,1.036,0.650,1.257,0.907,0.405,0.700,0.656,�k,1.7,��
2020/06/10,00:20,0.718,1.036,0.647,1.256,0.909,0.405,0.702,0.653,�k,1.5,��
2020/06/10,00:30,0.718,1.038,0.648,1.255,0.908,0.407,0.702,0.655,�k�k��,2.6,��
2020/06/10,00:40,0.718,1.038,0.650,1.255,0.907,0.405,0.701,0.655,�k��,2.0,��
2020/06/10,00:50,0.718,1.035,0.648,1.256,0.907,0.404,0.701,0.655,�k��,1.2,��
2020/06/10,01:00,0.717,1.036,0.648,1.256,0.907,0.404,0.702,0.655,�k�k��,1.2,��
2020/06/10,01:10,0.716,1.037,0.648,1.255,0.907,0.405,0.700,0.657,�k,1.1,��
2020/06/10,01:20,0.717,1.037,0.648,1.257,0.906,0.405,0.702,0.656,-,CALM,��
2020/06/10,01:30,0.717,1.036,0.648,1.256,0.907,0.405,0.701,0.654,-,CALM,��
2020/06/10,01:40,0.718,1.033,0.648,1.257,0.907,0.405,0.698,0.656,��쐼,0.6,��
2020/06/10,01:50,0.717,1.036,0.647,1.255,0.907,0.403,0.700,0.656,��쐼,0.9,��
2020/06/10,02:00,0.716,1.037,0.649,1.256,0.907,0.405,0.699,0.654,��쐼,0.9,��
2020/06/10,02:10,0.717,1.036,0.647,1.257,0.909,0.406,0.701,0.654,��,1.5,��
2020/06/10,02:20,0.717,1.037,0.649,1.257,0.908,0.406,0.700,0.654,�쐼,1.7,��
2020/06/10,02:30,0.718,1.038,0.650,1.253,0.908,0.405,0.699,0.654,��쐼,1.9,��
2020/06/10,02:40,0.717,1.036,0.649,1.255,0.906,0.403,0.700,0.655,��,2.2,��
2020/06/10,02:50,0.719,1.035,0.649,1.251,0.906,0.406,0.700,0.656,��,1.9,��
2020/06/10,03:00,0.719,1.035,0.649,1.255,0.907,0.404,0.700,0.654,��,1.1,��
2020/06/10,03:10,0.718,1.036,0.648,1.255,0.908,0.406,0.699,0.655,-,CALM,��
2020/06/10,03:20,0.718,1.038,0.649,1.256,0.909,0.405,0.700,0.654,-,CALM,��
2020/06/10,03:30,0.717,1.034,0.651,1.255,0.908,0.405,0.700,0.656,-,CALM,��
2020/06/10,03:40,0.719,1.038,0.646,1.254,0.909,0.404,0.701,0.655,��쓌,0.6,��
2020/06/10,03:50,0.720,1.038,0.648,1.254,0.911,0.405,0.698,0.656,-,CALM,��
2020/06/10,04:00,0.718,1.037,0.648,1.257,0.909,0.405,0.700,0.655,�k�k��,0.6,��
2020/06/10,04:10,0.717,1.036,0.648,1.254,0.908,0.405,0.699,0.655,-,CALM,��
2020/06/10,04:20,0.718,1.035,0.647,1.254,0.907,0.405,0.701,0.656,�k��,0.6,��
2020/06/10,04:30,0.718,1.037,0.648,1.252,0.906,0.405,0.701,0.656,�k��,1.1,��
2020/06/10,04:40,0.717,1.034,0.647,1.253,0.908,0.407,0.701,0.656,�k��,0.8,��
2020/06/10,04:50,0.717,1.035,0.649,1.256,0.906,0.405,0.700,0.655,�k��,0.6,��
2020/06/10,05:00,0.716,1.033,0.649,1.254,0.908,0.405,0.699,0.656,��,0.6,��
2020/06/10,05:10,0.718,1.035,0.647,1.253,0.907,0.404,0.701,0.656,-,CALM,��
2020/06/10,05:20,0.715,1.035,0.647,1.253,0.908,0.405,0.699,0.655,-,CALM,��
2020/06/10,05:30,0.718,1.033,0.648,1.254,0.908,0.405,0.698,0.654,-,CALM,��
2020/06/10,05:40,0.716,1.033,0.647,1.252,0.906,0.406,0.698,0.654,-,CALM,��
2020/06/10,05:50,0.716,1.033,0.647,1.254,0.906,0.404,0.700,0.654,�쓌,1.2,��
2020/06/10,06:00,0.715,1.034,0.647,1.254,0.908,0.405,0.699,0.655,��,0.6,��
2020/06/10,06:10,0.717,1.034,0.647,1.253,0.906,0.404,0.698,0.654,��,0.8,��
2020/06/10,06:20,0.718,1.034,0.647,1.250,0.908,0.404,0.700,0.655,�k,0.8,��
2020/06/10,06:30,0.715,1.033,0.648,1.254,0.904,0.403,0.697,0.653,�k��,0.6,��
2020/06/10,06:40,0.716,1.035,0.647,1.256,0.906,0.403,0.697,0.653,-,CALM,��
2020/06/10,06:50,0.717,1.033,0.648,1.252,0.906,0.405,0.698,0.653,-,CALM,��
2020/06/10,07:00,0.718,1.034,0.646,1.252,0.906,0.404,0.698,0.653,�k��,0.6,��
2020/06/10,07:10,0.715,1.036,0.648,1.251,0.906,0.403,0.698,0.655,�쓌,0.6,��
2020/06/10,07:20,0.715,1.033,0.645,1.253,0.906,0.404,0.698,0.654,�쐼,0.6,��
2020/06/10,07:30,0.715,1.033,0.648,1.252,0.907,0.405,0.699,0.653,�쓌,1.2,��
2020/06/10,07:40,0.715,1.032,0.647,1.252,0.906,0.402,0.697,0.654,��,1.5,��
2020/06/10,07:50,0.714,1.034,0.645,1.251,0.906,0.403,0.697,0.653,�쓌,1.4,��
2020/06/10,08:00,0.715,1.031,0.647,1.254,0.905,0.402,0.698,0.652,�쓌,0.9,��
2020/06/10,08:10,0.715,1.032,0.645,1.253,0.906,0.402,0.699,0.651,�쓌,1.9,��
2020/06/10,08:20,0.716,1.032,0.646,1.252,0.903,0.402,0.698,0.651,��,1.2,��
2020/06/10,08:30,0.716,1.028,0.642,1.253,0.904,0.403,0.698,0.652,���쓌,1.7,��
2020/06/10,08:40,0.716,1.026,0.647,1.252,0.904,0.405,0.699,0.652,�쓌,1.5,��
2020/06/10,08:50,0.715,1.029,0.649,1.253,0.904,0.402,0.700,0.652,���쓌,1.5,��
2020/06/10,09:00,0.716,1.028,0.640,1.249,0.905,0.403,0.698,0.652,���k��,1.9,��
2020/06/10,09:10,0.717,1.028,0.638,1.252,0.905,0.403,0.699,0.651,��,2.2,��
2020/06/10,09:20,0.717,1.028,0.640,1.253,0.905,0.402,0.699,0.653,��,2.0,��
2020/06/10,09:30,0.715,1.027,0.637,1.252,0.903,0.404,0.699,0.653,��,2.3,��
2020/06/10,09:40,0.717,1.028,0.639,1.254,0.904,0.403,0.698,0.653,���k��,2.3,��
2020/06/10,09:50,0.716,1.028,0.638,1.251,0.904,0.403,0.699,0.653,�k��,1.7,��
2020/06/10,10:00,0.716,1.028,0.639,1.251,0.904,0.402,0.700,0.652,���k��,2.3,��
2020/06/10,10:10,0.718,1.025,0.640,1.253,0.906,0.403,0.698,0.652,�k��,2.2,��
2020/06/10,10:20,0.716,1.026,0.641,1.252,0.906,0.403,0.699,0.653,���쓌,2.6,��
2020/06/10,10:30,0.717,1.029,0.642,1.252,0.907,0.402,0.700,0.653,���쓌,2.3,��
2020/06/10,10:40,0.718,1.028,0.643,1.252,0.905,0.403,0.699,0.653,�쓌,3.2,��
2020/06/10,10:50,0.718,1.033,0.642,1.252,0.907,0.405,0.699,0.653,���쓌,3.0,��
2020/06/10,11:00,0.717,1.029,0.643,1.250,0.909,0.403,0.700,0.653,�쓌,2.2,��
2020/06/10,11:10,0.718,1.028,0.644,1.251,0.908,0.402,0.700,0.654,���쓌,2.5,��
2020/06/10,11:20,0.719,1.032,0.642,1.250,0.906,0.403,0.700,0.653,�쓌,2.0,��
2020/06/10,11:30,0.715,1.032,0.644,1.253,0.909,0.402,0.699,0.653,�쓌,2.6,��
2020/06/10,11:40,0.718,1.031,0.645,1.253,0.908,0.403,0.700,0.653,�쓌,2.6,��
2020/06/10,11:50,0.718,1.031,0.645,1.250,0.908,0.404,0.699,0.653,�쓌,3.2,��
2020/06/10,12:00,0.718,1.034,0.645,1.252,0.910,0.403,0.701,0.654,��쓌,4.1,��
2020/06/10,12:10,0.717,1.034,0.644,1.249,0.909,0.403,0.702,0.653,��쓌,4.7,��
2020/06/10,12:20,0.720,1.038,0.645,1.253,0.910,0.404,0.702,0.655,��쓌,4.7,��
2020/06/10,12:30,0.720,1.036,0.645,1.249,0.909,0.404,0.700,0.654,��쓌,3.8,��
2020/06/10,12:40,0.719,1.033,0.645,1.253,0.908,0.403,0.700,0.654,�쓌,3.7,��
2020/06/10,12:50,0.719,1.035,0.647,1.253,0.909,0.403,0.701,0.655,�쓌,2.6,��
2020/06/10,13:00,0.721,1.036,0.645,1.253,0.908,0.402,0.700,0.654,��쓌,3.3,��
2020/06/10,13:10,0.721,1.033,0.645,1.251,0.910,0.404,0.701,0.653,��쓌,3.6,��
2020/06/10,13:20,0.718,1.034,0.646,1.254,0.910,0.404,0.701,0.656,��쓌,4.0,��
2020/06/10,13:30,0.722,1.033,0.645,1.252,0.908,0.403,0.700,0.654,��쓌,5.1,��
2020/06/10,13:40,0.719,1.029,0.645,1.251,0.909,0.404,0.702,0.654,��쓌,4.1,��
2020/06/10,13:50,0.722,1.032,0.645,1.257,0.910,0.404,0.701,0.653,�쓌,3.0,��
2020/06/10,14:00,0.720,1.031,0.645,1.255,0.909,0.403,0.701,0.654,��쓌,3.3,��
2020/06/10,14:10,0.721,1.034,0.655,1.255,0.908,0.404,0.701,0.652,�쓌,2.9,��
2020/06/10,14:20,0.718,1.031,0.656,1.254,0.907,0.404,0.702,0.654,�쓌,2.5,��
2020/06/10,14:30,0.720,1.032,0.657,1.253,0.910,0.402,0.701,0.654,��쓌,2.2,��
2020/06/10,14:40,0.719,1.030,0.652,1.253,0.908,0.403,0.701,0.653,��쓌,3.6,��
2020/06/10,14:50,0.720,1.034,0.646,1.255,0.911,0.403,0.701,0.655,��쓌,5.9,��
2020/06/10,15:00,0.720,1.034,0.647,1.254,0.909,0.403,0.701,0.653,��쓌,4.6,��
2020/06/10,15:10,0.719,1.033,0.646,1.254,0.912,0.402,0.700,0.652,��쓌,6.7,��
2020/06/10,15:20,0.721,1.034,0.646,1.254,0.908,0.404,0.702,0.653,��,5.2,��
2020/06/10,15:30,0.720,1.033,0.648,1.256,0.910,0.404,0.702,0.653,��쓌,4.9,��
2020/06/10,15:40,0.720,1.033,0.649,1.255,0.911,0.404,0.702,0.652,��,5.5,��
2020/06/10,15:50,0.720,1.035,0.648,1.255,0.910,0.405,0.703,0.657,��,5.3,��
2020/06/10,16:00,0.721,1.035,0.647,1.256,0.910,0.405,0.701,0.653,��,3.9,��
2020/06/10,16:10,0.721,1.038,0.648,1.256,0.911,0.404,0.704,0.653,��쐼,1.5,��
2020/06/10,16:20,0.722,1.038,0.649,1.257,0.911,0.405,0.703,0.654,�k�k��,0.6,��
2020/06/10,16:30,0.722,1.039,0.649,1.257,0.911,0.404,0.702,0.654,�k,1.2,��
2020/06/10,16:40,0.722,1.037,0.648,1.257,0.911,0.405,0.702,0.653,�k�k��,0.6,��
2020/06/10,16:50,0.723,1.039,0.649,1.260,0.911,0.407,0.702,0.655,�k,0.6,��
2020/06/10,17:00,0.722,1.038,0.648,1.257,0.910,0.405,0.702,0.654,�k�k��,1.7,��
2020/06/10,17:10,0.722,1.037,0.649,1.255,0.911,0.407,0.702,0.655,�k��,0.9,��
2020/06/10,17:20,0.723,1.036,0.649,1.257,0.912,0.406,0.703,0.654,��쓌,1.5,��
2020/06/10,17:30,0.722,1.036,0.648,1.260,0.913,0.406,0.702,0.654,��,2.5,��
2020/06/10,17:40,0.723,1.036,0.649,1.256,0.908,0.407,0.702,0.654,��,4.0,��
2020/06/10,17:50,0.721,1.037,0.648,1.258,0.909,0.406,0.702,0.655,��쐼,4.1,��
2020/06/10,18:00,0.720,1.036,0.649,1.258,0.909,0.406,0.702,0.654,��,5.0,��
2020/06/10,18:10,0.723,1.038,0.649,1.256,0.908,0.406,0.702,0.655,��,5.4,��
2020/06/10,18:20,0.723,1.038,0.650,1.258,0.910,0.406,0.703,0.656,��,5.7,��
2020/06/10,18:30,0.723,1.038,0.647,1.255,0.912,0.405,0.703,0.654,��,6.2,��
2020/06/10,18:40,0.722,1.038,0.648,1.256,0.912,0.406,0.702,0.656,��,8.5,��
2020/06/10,18:50,0.723,1.036,0.646,1.257,0.912,0.405,0.700,0.655,��,9.6,��
2020/06/10,19:00,0.723,1.039,0.648,1.257,0.910,0.405,0.702,0.656,��,9.7,��
2020/06/10,19:10,0.720,1.037,0.649,1.256,0.911,0.405,0.702,0.655,��,10.2,��
2020/06/10,19:20,0.721,1.036,0.648,1.256,0.912,0.404,0.702,0.656,��,9.6,��
2020/06/10,19:30,0.722,1.038,0.648,1.256,0.912,0.406,0.702,0.655,��,10.2,��
2020/06/10,19:40,0.722,1.040,0.650,1.257,0.912,0.406,0.701,0.656,��,10.7,��
2020/06/10,19:50,0.723,1.035,0.651,1.260,0.909,0.406,0.703,0.657,��,9.9,��
2020/06/10,20:00,0.723,1.040,0.651,1.257,0.911,0.405,0.701,0.657,��,10.2,��
2020/06/10,20:10,0.723,1.039,0.648,1.258,0.913,0.407,0.703,0.656,��,9.0,��
2020/06/10,20:20,0.720,1.039,0.648,1.259,0.913,0.406,0.702,0.656,��,8.8,��
2020/06/10,20:30,0.722,1.042,0.650,1.259,0.912,0.407,0.702,0.654,��,9.2,��
2020/06/10,20:40,0.724,1.039,0.649,1.257,0.911,0.406,0.703,0.656,��,8.7,��
2020/06/10,20:50,0.723,1.041,0.650,1.257,0.912,0.406,0.703,0.656,��,8.0,��
2020/06/10,21:00,0.721,1.037,0.649,1.258,0.911,0.406,0.703,0.654,��,6.9,��
2020/06/10,21:10,0.722,1.039,0.649,1.260,0.910,0.406,0.703,0.655,��,8.4,��
2020/06/10,21:20,0.722,1.038,0.650,1.259,0.910,0.407,0.703,0.656,��,9.2,��
2020/06/10,21:30,0.720,1.039,0.651,1.259,0.912,0.406,0.703,0.656,��,10.3,��
2020/06/10,21:40,0.721,1.039,0.650,1.260,0.911,0.407,0.702,0.656,��,9.7,��
2020/06/10,21:50,0.722,1.039,0.648,1.261,0.911,0.406,0.703,0.656,��,10.3,��
2020/06/10,22:00,0.720,1.038,0.648,1.262,0.911,0.406,0.703,0.657,��,11.1,��
2020/06/10,22:10,0.723,1.040,0.651,1.259,0.913,0.405,0.704,0.656,��,8.8,��
2020/06/10,22:20,0.723,1.037,0.651,1.259,0.911,0.406,0.704,0.656,��,8.2,��
2020/06/10,22:30,0.721,1.036,0.650,1.260,0.912,0.408,0.702,0.656,��,7.6,��
2020/06/10,22:40,0.722,1.040,0.649,1.260,0.912,0.405,0.703,0.655,��,8.2,��
2020/06/10,22:50,0.720,1.038,0.650,1.262,0.912,0.404,0.702,0.657,��,8.9,��
2020/06/10,23:00,0.723,1.037,0.650,1.261,0.912,0.407,0.703,0.656,��,8.7,��
2020/06/10,23:10,0.724,1.039,0.649,1.260,0.910,0.406,0.704,0.655,��,7.4,��
2020/06/10,23:20,0.723,1.040,0.649,1.259,0.911,0.407,0.702,0.655,��,8.1,��
2020/06/10,23:30,0.722,1.040,0.651,1.261,0.911,0.406,0.703,0.657,��,8.1,��
2020/06/10,23:40,0.722,1.036,0.649,1.261,0.912,0.405,0.703,0.656,��,7.1,��
2020/06/10,23:50,0.720,1.040,0.650,1.262,0.909,0.406,0.703,0.655,��,7.1,��
